• In Russia
  • List of Countries
  • For 7 days
  • Water Temperature
  • Satellite Maps
  • Weather Map
  • Weather Widgets
  • user-avatar
    Login

    Hourly Weather Roseau

    Today, 24 April, Wednesday

    Time Temperature Precipitation Wind Pressure Humidity
    00:00 +27°C° 0.1 mm 4 mps 760 mmHg 74%
    01:00 +27°C° 0.1 mm 4 mps 760 mmHg 74%
    02:00 +27°C° 0 mm 3 mps 760 mmHg 74%
    03:00 +27°C° 0.1 mm 3 mps 760 mmHg 75%
    04:00 +27°C° 0.1 mm 3 mps 759 mmHg 76%
    05:00 +27°C° 0.1 mm 3 mps 759 mmHg 77%
    06:00 +28°C° 0 mm 3 mps 760 mmHg 75%
    07:00 +28°C° 0 mm 3 mps 760 mmHg 74%
    08:00 +29°C° 0 mm 3 mps 760 mmHg 72%
    09:00 +29°C° 0.1 mm 3 mps 761 mmHg 70%
    10:00 +30°C° 0.1 mm 3 mps 761 mmHg 67%
    11:00 +30°C° 0.1 mm 3 mps 761 mmHg 65%
    12:00 +31°C° 0.2 mm 3 mps 761 mmHg 64%
    13:00 +31°C° 0.2 mm 3 mps 761 mmHg 63%
    14:00 +31°C° 0.2 mm 3 mps 760 mmHg 63%
    15:00 +30°C° 0.1 mm 3 mps 760 mmHg 65%
    16:00 +30°C° 0.1 mm 3 mps 760 mmHg 67%
    17:00 +29°C° 0.1 mm 3 mps 760 mmHg 69%
    18:00 +29°C° 0 mm 4 mps 760 mmHg 72%
    19:00 +29°C° 0 mm 4 mps 760 mmHg 74%
    20:00 +28°C° 0 mm 4 mps 761 mmHg 76%
    21:00 +28°C° 0.1 mm 4 mps 761 mmHg 77%
    22:00 +28°C° 0.1 mm 4 mps 761 mmHg 77%
    23:00 +28°C° 0.1 mm 5 mps 762 mmHg 78%

    Tomorrow, 25 April, Thursday

    Time Temperature Precipitation Wind Pressure Humidity
    00:00 +28°C° 0.1 mm 5 mps 761 mmHg 78%
    01:00 +28°C° 0.1 mm 5 mps 761 mmHg 79%
    02:00 +28°C° 0.1 mm 5 mps 760 mmHg 79%
    03:00 +28°C° 0.1 mm 5 mps 760 mmHg 79%
    04:00 +28°C° 0.1 mm 5 mps 760 mmHg 79%
    05:00 +28°C° 0.1 mm 5 mps 760 mmHg 79%
    06:00 +28°C° 0.1 mm 5 mps 760 mmHg 78%
    07:00 +28°C° 0.1 mm 6 mps 761 mmHg 77%
    08:00 +29°C° 0.1 mm 6 mps 761 mmHg 76%
    09:00 +29°C° 0 mm 6 mps 761 mmHg 74%
    10:00 +30°C° 0 mm 5 mps 761 mmHg 72%
    11:00 +30°C° 0 mm 5 mps 762 mmHg 70%
    12:00 +30°C° 0 mm 6 mps 761 mmHg 72%
    13:00 +30°C° 0 mm 6 mps 761 mmHg 73%
    14:00 +30°C° 0 mm 6 mps 760 mmHg 74%
    15:00 +30°C° 0 mm 6 mps 760 mmHg 75%
    16:00 +29°C° 0 mm 6 mps 760 mmHg 75%
    17:00 +29°C° 0 mm 6 mps 760 mmHg 76%
    18:00 +29°C° 0 mm 6 mps 760 mmHg 77%
    19:00 +29°C° 0 mm 6 mps 761 mmHg 79%
    20:00 +28°C° 0 mm 6 mps 761 mmHg 81%
    21:00 +28°C° 0 mm 6 mps 761 mmHg 81%
    22:00 +28°C° 0 mm 6 mps 762 mmHg 82%
    23:00 +28°C° 0 mm 6 mps 762 mmHg 82%

    Day after tomorrow, 26 April, Friday

    Time Temperature Precipitation Wind Pressure Humidity
    00:00 +28°C° 0.1 mm 6 mps 762 mmHg 82%
    01:00 +28°C° 0.1 mm 6 mps 761 mmHg 82%
    02:00 +28°C° 0.1 mm 6 mps 761 mmHg 82%
    03:00 +28°C° 0.1 mm 6 mps 760 mmHg 82%
    04:00 +28°C° 0.1 mm 6 mps 760 mmHg 82%
    05:00 +28°C° 0.1 mm 6 mps 760 mmHg 82%
    06:00 +28°C° 0 mm 6 mps 761 mmHg 80%
    07:00 +28°C° 0 mm 6 mps 761 mmHg 78%
    08:00 +29°C° 0 mm 6 mps 762 mmHg 77%
    09:00 +29°C° 0.1 mm 6 mps 762 mmHg 75%
    10:00 +30°C° 0.1 mm 6 mps 762 mmHg 73%
    11:00 +30°C° 0.1 mm 7 mps 762 mmHg 72%
    12:00 +30°C° 0.8 mm 6 mps 762 mmHg 73%
    13:00 +30°C° 0.8 mm 6 mps 761 mmHg 74%
    14:00 +29°C° 0.8 mm 6 mps 760 mmHg 75%
    15:00 +29°C° 0.1 mm 6 mps 760 mmHg 76%
    16:00 +29°C° 0.1 mm 6 mps 760 mmHg 78%
    17:00 +29°C° 0.1 mm 6 mps 759 mmHg 79%
    18:00 +28°C° 0.1 mm 6 mps 760 mmHg 80%
    19:00 +28°C° 0.1 mm 7 mps 760 mmHg 81%
    20:00 +28°C° 0.1 mm 7 mps 761 mmHg 82%
    21:00 +28°C° 0 mm 7 mps 761 mmHg 82%
    22:00 +28°C° 0 mm 7 mps 761 mmHg 82%
    23:00 +28°C° 0 mm 7 mps 761 mmHg 82%

    27 April, Saturday

    Time Temperature Precipitation Wind Pressure Humidity
    00:00 +28°C° 0.1 mm 7 mps 761 mmHg 83%
    01:00 +28°C° 0.1 mm 6 mps 760 mmHg 83%
    02:00 +28°C° 0.1 mm 6 mps 760 mmHg 83%
    03:00 +28°C° 0.1 mm 6 mps 760 mmHg 83%
    04:00 +28°C° 0.1 mm 6 mps 760 mmHg 83%
    05:00 +28°C° 0.1 mm 6 mps 760 mmHg 83%
    06:00 +28°C° 0.5 mm 6 mps 761 mmHg 81%
    07:00 +29°C° 0.5 mm 6 mps 761 mmHg 80%
    08:00 +29°C° 0.5 mm 6 mps 762 mmHg 78%
    09:00 +29°C° 0.2 mm 6 mps 762 mmHg 76%
    10:00 +30°C° 0.2 mm 6 mps 762 mmHg 75%
    11:00 +30°C° 0.2 mm 6 mps 762 mmHg 73%
    12:00 +30°C° 0.4 mm 6 mps 761 mmHg 73%
    13:00 +30°C° 0.4 mm 6 mps 761 mmHg 73%
    14:00 +30°C° 0.4 mm 6 mps 760 mmHg 74%
    15:00 +30°C° 1.3 mm 5 mps 760 mmHg 75%
    16:00 +29°C° 1.3 mm 5 mps 760 mmHg 77%
    17:00 +29°C° 1.3 mm 5 mps 759 mmHg 79%
    18:00 +29°C° 0.8 mm 5 mps 760 mmHg 80%
    19:00 +28°C° 0.8 mm 6 mps 760 mmHg 81%
    20:00 +28°C° 0.8 mm 6 mps 761 mmHg 82%
    21:00 +28°C° 0 mm 6 mps 761 mmHg 82%
    22:00 +28°C° 0 mm 6 mps 761 mmHg 82%
    23:00 +28°C° 0 mm 6 mps 761 mmHg 82%

    28 April, Sunday

    Time Temperature Precipitation Wind Pressure Humidity
    00:00 +28°C° 0.1 mm 6 mps 761 mmHg 83%
    01:00 +28°C° 0.1 mm 6 mps 760 mmHg 83%
    02:00 +28°C° 0.1 mm 5 mps 760 mmHg 83%
    03:00 +28°C° 0.2 mm 5 mps 760 mmHg 83%
    04:00 +28°C° 0.2 mm 5 mps 760 mmHg 83%
    05:00 +28°C° 0.2 mm 5 mps 760 mmHg 83%
    06:00 +28°C° 0.8 mm 5 mps 760 mmHg 81%
    07:00 +28°C° 0.8 mm 5 mps 761 mmHg 80%
    08:00 +29°C° 0.8 mm 5 mps 762 mmHg 78%
    09:00 +29°C° 0.9 mm 5 mps 762 mmHg 75%
    10:00 +30°C° 0.9 mm 4 mps 762 mmHg 73%
    11:00 +30°C° 0.9 mm 4 mps 762 mmHg 70%
    12:00 +30°C° 0.1 mm 4 mps 761 mmHg 70%
    13:00 +30°C° 0.1 mm 4 mps 761 mmHg 69%
    14:00 +32°C° 0.1 mm 4 mps 760 mmHg 69%
    15:00 +30°C° 0.9 mm 4 mps 760 mmHg 71%
    16:00 +30°C° 0.9 mm 4 mps 760 mmHg 74%
    17:00 +29°C° 0.9 mm 4 mps 760 mmHg 76%
    18:00 +29°C° 0 mm 4 mps 760 mmHg 78%
    19:00 +29°C° 0 mm 5 mps 761 mmHg 80%
    20:00 +28°C° 0 mm 5 mps 761 mmHg 81%
    21:00 +28°C° 0 mm 5 mps 761 mmHg 82%
    22:00 +28°C° 0 mm 5 mps 761 mmHg 83%
    23:00 +28°C° 0 mm 5 mps 761 mmHg 83%

    29 April, Monday

    Time Temperature Precipitation Wind Pressure Humidity
    00:00 +28°C° 0.1 mm 5 mps 761 mmHg 84%
    01:00 +28°C° 0.1 mm 5 mps 761 mmHg 84%
    02:00 +28°C° 0.1 mm 5 mps 760 mmHg 85%
    03:00 +28°C° 0.1 mm 5 mps 760 mmHg 85%
    04:00 +28°C° 0.1 mm 6 mps 760 mmHg 85%
    05:00 +28°C° 0.1 mm 6 mps 760 mmHg 85%
    06:00 +28°C° 1.2 mm 6 mps 761 mmHg 83%
    07:00 +28°C° 1.2 mm 6 mps 761 mmHg 81%
    08:00 +28°C° 1.2 mm 6 mps 762 mmHg 79%
    09:00 +29°C° 0.4 mm 6 mps 762 mmHg 78%
    10:00 +29°C° 0.4 mm 6 mps 762 mmHg 77%
    11:00 +30°C° 0.4 mm 6 mps 762 mmHg 75%
    12:00 +30°C° 0.6 mm 6 mps 762 mmHg 75%
    13:00 +29°C° 0.6 mm 6 mps 761 mmHg 75%
    14:00 +29°C° 0.6 mm 6 mps 761 mmHg 75%
    15:00 +29°C° 0.3 mm 6 mps 761 mmHg 76%
    16:00 +29°C° 0.3 mm 6 mps 761 mmHg 77%
    17:00 +29°C° 0.3 mm 6 mps 760 mmHg 78%
    18:00 +29°C° 0 mm 6 mps 761 mmHg 79%
    19:00 +28°C° 0 mm 6 mps 761 mmHg 80%
    20:00 +28°C° 0 mm 6 mps 762 mmHg 81%
    21:00 +28°C° 0 mm 6 mps 762 mmHg 81%
    22:00 +28°C° 0 mm 7 mps 762 mmHg 81%
    23:00 +28°C° 0 mm 7 mps 762 mmHg 81%
    Show more